Location: Marcé
(47.5801°N, 0.3280°W)
Time: 21:27:36
(UTC+01:00)

Transit 2A - Pass Details

Date: 01 December 2021
Orbit: 591 x 967 km, 66.7° (Epoch: 23 January)

Event Time Altitude Azimuth Distance (km) Brightness Sun altitude
Rises 11:45:30 0° 317° (NW) 3,664 9.0 19.0°
Reaches altitude 10° 11:48:34 10° 304° (NW) 2,710 8.5 19.2°
Maximum altitude 11:53:26 24° 254° (WSW) 1,877 8.2 19.4°
Drops below altitude 10° 11:58:09 10° 204° (SSW) 2,609 9.8 19.6°
Sets 12:01:04 0° 190° (S) 3,497 10.6 19.7°
